Location: Kellogg
(38.0159°N, 90.0546°W)
Time: 13:20:19
(UTC+00:00)

Envisat - Pass Details

Date: 10 August 2024
Orbit: 762 x 764 km, 98.3° (Epoch: 16 September)

Event Time Altitude Azimuth Distance (km) Brightness Sun altitude
Rises 10:10:35 0° 359° (N) 3,234 6.7 -11.7°
Reaches altitude 10° 10:13:15 10° 346° (NNW) 2,304 5.7 -11.2°
Maximum altitude 10:17:18 25° 293° (WNW) 1,511 4.2 -10.5°
Enters shadow 10:20:45 13° 244° (WSW) 2,103 4.6 -9.9°
